Seward, AK

9:22 PM AKDT on May 25, 2017 (GMT -0800)
Seward

Weather History for PAWD - March, 2014

Change the Weather History Date:

Thursday, March 13, 2014

  Actual Average Record
Temperature  
Mean Temperature 38 °F -  
Max Temperature 42 °F 37 °F 46 °F (1970)
Min Temperature 35 °F 25 °F 3 °F (2003)
Degree Days  
Heating Degree Days 27    
Moisture  
Dew Point 33 °F    
Average Humidity 83    
Maximum Humidity 89    
Minimum Humidity 70    
Precipitation  
Precipitation 0.19 in - - ()
Sea Level Pressure  
Sea Level Pressure 29.19 in    
Wind  
Wind Speed 7 mph (NNW)    
Max Wind Speed 12 mph    
Max Gust Speed 17 mph    
Visibility 9 miles    
Events Rain    
Averages and records for this station are not official NWS values.
T = Trace of Precipitation, MM = Missing Value Source: NWS Daily Summary

Daily Weather History Graph

Daily Weather History Graph

Search for Another Location

Airport or City:

Trip Planner

Search our weather history database for the weather conditions in past years. The results will help you decide how hot, cold, wet, or windy it might be!

Date:

Astronomy

Mar. 13, 2014 Rise Set
Actual Time 8:19 AM AKDT 7:55 PM AKDT
Civil Twilight 7:38 AM AKDT 8:37 PM AKDT
Nautical Twilight 6:49 AM AKDT 9:26 PM AKDT
Astronomical Twilight 5:57 AM AKDT 10:18 PM AKDT
Moon 5:02 PM AKDT (3/13) 7:05 AM AKDT (3/13)
Length of Visible Light 12h 58m
Length of Day
11h 35m
Waxing Gibbous, 92% of the Moon is Illuminated
Mar 13
Waxing Gibbous
Mar 16
Full
Mar 23
Last Quarter
Mar 30
New
Apr 7
First Quarter

Hourly Weather History & Observations

Time (AKDT) Temp. Windchill Dew Point Humidity Pressure Visibility Wind Dir Wind Speed Gust Speed Precip Events Conditions
12:05 AM 36.0 °F 29.6 °F 30.0 °F 79% 29.41 in 10.0 mi NE 8.1 mph - 0.00 in   Overcast
12:22 AM 35.1 °F 31.0 °F 30.9 °F 85% 29.40 in 9.0 mi North 4.6 mph - 0.00 in Rain Light Rain
12:53 AM 35.1 °F 28.6 °F 30.9 °F 85% 29.39 in 6.0 mi NW 8.1 mph - 0.00 in Rain Light Rain
1:53 AM 35.1 °F 29.3 °F 32.0 °F 89% 29.36 in 9.0 mi NNW 6.9 mph - 0.02 in Rain Light Rain
2:53 AM 36.0 °F 33.3 °F 32.0 °F 86% 29.34 in 7.0 mi Variable 3.5 mph - 0.00 in Rain Light Rain
3:33 AM 35.1 °F 30.1 °F 32.0 °F 89% 29.32 in 6.0 mi NW 5.8 mph - 0.03 in Rain Light Rain
3:53 AM 35.1 °F 28.6 °F 32.0 °F 89% 29.31 in 5.0 mi NNW 8.1 mph - 0.05 in Rain Light Rain
4:19 AM 36.0 °F 29.0 °F 32.0 °F 86% 29.30 in 7.0 mi NNW 9.2 mph 17.3 mph 0.02 in Rain Light Rain
4:53 AM 36.0 °F 29.0 °F 32.0 °F 86% 29.30 in 6.0 mi WNW 9.2 mph - 0.04 in Rain Light Rain
5:05 AM 36.0 °F 28.0 °F 32.0 °F 86% 29.30 in 5.0 mi NNW 11.5 mph - 0.01 in Rain Light Rain
5:53 AM 35.1 °F 27.4 °F 32.0 °F 89% 29.28 in 5.0 mi NW 10.4 mph - 0.05 in Rain Rain
6:14 AM 36.0 °F 28.5 °F 32.0 °F 86% 29.28 in 7.0 mi North 10.4 mph - 0.01 in Rain Light Rain
6:53 AM 36.0 °F 29.0 °F 32.0 °F 86% 29.26 in 9.0 mi NW 9.2 mph - 0.02 in Rain Light Rain
7:53 AM 37.0 °F 30.4 °F 32.0 °F 82% 29.25 in 10.0 mi NW 9.2 mph - 0.00 in Rain Light Rain
8:15 AM 37.0 °F 33.3 °F 30.9 °F 79% 29.25 in 10.0 mi WSW 4.6 mph - 0.00 in Rain Light Rain
8:53 AM 37.0 °F 32.4 °F 30.9 °F 79% 29.23 in 10.0 mi WNW 5.8 mph - 0.00 in   Overcast
9:53 AM 37.9 °F 32.1 °F 32.0 °F 79% 29.22 in 10.0 mi NNW 8.1 mph - 0.00 in   Overcast
10:53 AM 36.0 °F 33.3 °F 33.1 °F 89% 29.22 in 10.0 mi Variable 3.5 mph - 0.00 in   Overcast
11:53 AM 37.9 °F - 34.0 °F 86% 29.20 in 10.0 mi Calm Calm - N/A   Mostly Cloudy
12:53 PM 37.9 °F - 35.1 °F 89% 29.19 in 10.0 mi Calm Calm - 0.00 in   Overcast
1:53 PM 37.9 °F - 35.1 °F 89% 29.16 in 10.0 mi Calm Calm - 0.00 in Rain Light Rain
2:53 PM 39.0 °F 33.4 °F 35.1 °F 86% 29.14 in 10.0 mi East 8.1 mph - 0.00 in   Overcast
3:53 PM 41.0 °F 36.4 °F 34.0 °F 76% 29.12 in 10.0 mi Variable 6.9 mph - 0.00 in   Overcast
4:53 PM 41.0 °F 37.1 °F 32.0 °F 70% 29.10 in 10.0 mi WNW 5.8 mph - 0.00 in Rain Light Rain
5:48 PM 39.2 °F 32.5 °F 33.8 °F 81% 29.09 in 10.0 mi NNW 10.4 mph - 0.00 in Rain Light Rain
5:53 PM 39.9 °F 32.9 °F 32.0 °F 73% 29.09 in 10.0 mi NNW 11.5 mph - 0.00 in Rain Light Rain
6:53 PM 39.0 °F 31.8 °F 33.1 °F 79% 29.07 in 10.0 mi NNW 11.5 mph - 0.00 in Rain Light Rain
7:26 PM 39.0 °F 32.3 °F 33.1 °F 79% 29.06 in 10.0 mi NNW 10.4 mph - 0.00 in Rain Light Rain
7:33 PM 39.0 °F 32.8 °F 33.1 °F 79% 29.06 in 10.0 mi NNW 9.2 mph - 0.00 in Rain Light Rain
7:53 PM 39.0 °F 32.8 °F 33.1 °F 79% 29.06 in 10.0 mi NNW 9.2 mph - 0.00 in Rain Light Rain
8:10 PM 39.0 °F 33.4 °F 33.1 °F 79% 29.07 in 10.0 mi NNW 8.1 mph - 0.00 in Rain Light Rain
8:21 PM 39.9 °F 33.4 °F 33.1 °F 77% 29.07 in 10.0 mi NNW 10.4 mph - 0.00 in Rain Light Rain
8:53 PM 39.0 °F 31.8 °F 33.1 °F 79% 29.06 in 10.0 mi NNW 11.5 mph - 0.01 in Rain Light Rain
9:53 PM 37.9 °F 32.1 °F 34.0 °F 86% 29.05 in 9.0 mi NW 8.1 mph - 0.00 in Rain Light Rain
10:01 PM 39.0 °F 34.0 °F 33.1 °F 79% 29.05 in 10.0 mi WNW 6.9 mph - 0.00 in Rain Light Rain
10:53 PM 39.0 °F 34.0 °F 34.0 °F 82% 29.05 in 10.0 mi NW 6.9 mph - 0.00 in Rain Light Rain
11:48 PM 37.4 °F 31.4 °F 33.8 °F 87% 29.04 in 10.0 mi NNW 8.1 mph - 0.00 in Rain Light Rain
11:53 PM 39.0 °F 34.8 °F 34.0 °F 82% 29.04 in 10.0 mi NW 5.8 mph - 0.00 in Rain Light Rain